Wind_Speed
17 20 18 16 16 16 20 19 17 16 20 24 26 26 30 32 22 21 19 16 11 17 16 19 12 11 9 9 8 9 13 14 19 22 27 31 35 39 38 34 37 36 33 28 28 31 27 23 21
21 20 20 17 20 18 20 19 18 20 24 29 27 28 30 28 21 22 25 16 13 11 13 10 11 7 8 4 5 9 10 13 16 20 23 25 29 35 36 39 40 45 43 35 30 31 33 31 25
22 20 17 19 18 20 21 21 22 26 28 28 30 31 26 23 24 29 18 16 10 11 4 4 4 5 2 8 7 10 12 12 15 20 22 26 27 31 34 37 38 42 41 47 38 31 33 36 35
20 21 19 19 19 20 19 20 24 29 28 31 29 15 18 22 26 29 24 15 7 7 7 4 1 3 5 3 6 11 13 14 15 18 21 24 25 27 31 33 31 33 40 42 42 42 33 36 39
21 19 19 18 19 20 24 23 26 29 27 23 21 23 26 25 27 24 21 22 19 17 11 11 9 8 3 7 6 4 8 12 13 16 20 23 24 26 27 30 29 28 33 35 39 42 45 35 34
28 23 19 21 21 18 16 18 17 22 22 24 28 29 28 27 24 22 19 21 25 26 24 15 13 12 9 9 7 5 9 8 12 12 19 21 21 23 25 25 25 28 30 34 36 38 39 40 39
19 21 23 16 13 13 12 17 24 30 32 30 25 24 22 21 18 17 15 19 28 32 32 24 12 9 12 12 11 7 9 9 10 12 17 19 19 19 22 23 23 24 27 30 31 31 34 38 36
15 18 18 20 16 12 18 23 27 24 21 16 15 17 20 22 19 17 16 16 19 27 34 25 16 13 17 15 14 10 7 12 12 13 14 19 18 17 18 21 24 22 23 25 28 29 30 30 32
15 13 14 13 13 15 18 21 21 19 16 18 19 16 15 13 13 16 14 13 14 16 18 26 27 15 20 14 11 10 10 16 13 11 13 14 16 17 18 18 21 22 23 22 25 31 31 29 32
15 11 9 12 14 15 17 14 11 12 11 9 7 6 8 9 9 10 13 11 11 13 18 22 24 19 18 11 11 11 10 15 17 13 12 11 12 14 14 15 17 19 20 20 23 26 29 31 32
11 7 6 9 12 13 10 6 6 4 5 10 9 6 9 11 9 6 9 12 11 15 20 23 21 21 17 14 10 12 12 15 16 14 10 7 8 10 10 13 13 14 16 17 19 21 24 26 24
12 15 15 17 12 12 9 7 6 4 7 13 14 10 14 11 13 1 5 9 15 15 25 28 23 20 19 16 15 11 12 15 15 15 10 6 5 6 8 9 10 10 11 15 16 16 18 18 17
13 14 16 17 16 7 6 6 6 1 12 15 16 16 17 17 21 12 8 11 15 16 22 30 27 23 18 11 13 15 18 17 15 15 13 10 3 6 7 6 8 7 7 11 14 16 15 15 16
15 14 13 13 11 6 8 2 3 2 10 15 16 22 21 19 20 22 15 8 10 17 17 24 31 28 21 18 16 22 22 17 12 14 12 9 6 5 6 3 7 10 9 8 11 13 12 11 11
15 9 9 9 4 5 3 0 5 7 7 13 17 23 21 21 18 20 17 14 8 9 14 17 22 27 26 24 18 26 21 18 16 15 15 9 11 5 8 6 5 10 9 8 9 11 10 8 7
15 11 12 12 6 6 7 5 6 8 7 8 15 21 19 18 18 22 24 25 5 5 9 16 18 22 23 22 25 23 23 18 20 17 20 15 14 8 5 10 7 8 9 8 6 4 4 4 4
15 16 17 16 12 11 13 9 8 7 5 8 13 14 21 18 16 15 20 24 22 1 6 21 22 18 19 19 22 26 25 22 22 20 25 18 18 18 12 8 7 5 6 6 4 3 2 2 2
18 17 17 17 13 11 11 13 13 14 8 7 6 10 15 18 15 16 18 20 25 19 4 7 18 24 28 25 25 26 27 24 21 20 19 23 21 18 14 9 6 4 8 7 5 2 5 4 1
23 23 22 20 15 12 13 11 13 14 16 3 7 8 10 16 12 14 17 19 22 27 13 4 8 15 20 31 36 31 27 31 30 29 28 24 26 21 17 12 10 9 8 8 5 5 4 2 2
28 29 27 24 22 18 16 11 11 14 8 9 5 7 11 10 11 14 19 16 17 19 23 10 9 9 16 18 26 37 41 40 38 34 34 30 29 27 18 16 12 12 10 12 7 5 5 4 2
32 33 31 26 25 18 16 13 10 10 10 7 9 6 13 10 11 17 22 21 17 20 22 18 9 8 18 21 22 24 27 30 37 40 38 38 35 32 23 13 15 14 13 11 8 8 5 3 4
33 30 29 29 28 27 22 15 12 12 10 10 11 11 17 16 14 20 22 27 24 19 18 23 17 9 2 8 19 24 26 25 28 31 31 33 30 38 31 21 19 14 14 11 7 8 6 6 9
32 31 36 33 34 33 31 24 22 20 15 12 15 15 16 18 19 20 25 24 28 22 21 18 23 15 16 14 10 10 22 26 28 26 28 27 27 29 28 20 17 19 15 11 9 7 12 15 13
34 38 36 39 40 36 34 31 26 26 26 22 21 20 21 22 22 28 29 24 24 23 16 15 20 17 16 18 17 13 11 18 25 25 29 31 27 29 25 21 22 24 19 15 14 13 11 11 11
31 39 42 43 42 39 37 34 31 29 28 26 25 24 24 27 30 30 25 27 22 21 13 14 15 16 12 15 19 15 10 14 22 30 31 36 31 27 25 24 25 24 21 21 18 14 9 7 12
35 34 39 43 43 39 37 37 32 32 33 32 30 30 30 29 32 32 33 25 20 20 15 12 13 13 8 10 15 16 7 12 22 30 35 37 34 28 25 26 27 24 18 16 14 12 8 7 1
35 33 38 37 38 40 37 41 35 36 37 36 35 34 34 32 33 34 30 26 22 17 18 9 7 11 12 6 11 14 6 12 19 29 35 32 32 28 26 24 23 25 19 16 13 9 10 6 5
36 37 35 35 34 33 37 39 43 40 40 38 37 37 37 37 35 30 28 28 23 20 18 13 10 10 12 8 7 8 8 13 21 31 37 28 24 28 27 27 27 24 22 17 13 12 8 6 7
38 39 39 38 36 34 32 35 41 39 43 40 40 41 39 38 32 27 28 28 26 23 17 15 15 14 9 6 11 6 5 8 20 31 37 30 25 26 25 29 28 23 21 18 17 11 8 6 7
33 36 38 38 36 33 30 31 35 34 34 34 35 35 34 33 32 29 28 27 27 26 21 17 16 18 13 14 12 12 6 4 16 29 34 32 31 26 26 26 23 20 20 17 17 17 14 11 8
Wind_Direction
212 218 226 240 251 262 262 266 270 279 276 286 288 295 296 301 302 302 306 315 272 265 268 288 302 312 350 352 356 42 54 50 68 62 57 46 44 49 59 61 55 63 67 67 75 79 95 123 138
225 232 245 253 252 267 264 274 284 288 285 284 289 294 300 303 296 306 305 305 284 284 295 281 263 263 323 343 6 55 55 57 71 61 57 46 49 51 57 62 69 65 70 75 81 85 86 96 117
237 239 242 248 256 264 272 278 281 286 290 295 295 296 283 293 288 297 284 281 305 290 267 245 242 265 306 22 68 85 72 69 68 60 54 59 53 53 57 66 72 63 67 67 76 86 85 89 99
241 243 239 250 254 261 277 282 286 291 296 296 290 274 285 284 288 290 289 258 210 263 211 159 307 170 72 12 84 105 77 78 60 66 59 61 59 59 61 67 76 63 67 66 67 76 90 90 98
238 237 242 252 260 279 287 289 293 298 289 288 291 286 287 287 289 289 285 249 204 215 198 187 215 286 257 229 259 93 110 88 87 73 67 66 68 65 65 66 70 64 66 72 74 75 77 90 93
242 246 256 260 263 277 273 281 289 301 294 286 282 283 283 288 291 286 280 239 219 215 212 207 250 269 255 195 168 125 126 106 100 83 74 69 72 70 69 69 66 65 66 73 81 80 86 83 88
230 231 232 241 247 252 260 281 297 297 291 287 284 284 286 285 283 278 271 227 224 232 229 219 228 200 193 163 146 131 132 130 110 97 83 77 72 71 72 68 69 67 66 62 68 77 93 95 96
231 220 229 236 242 264 283 291 300 303 309 324 315 305 300 295 278 277 266 242 229 234 234 233 193 192 201 167 145 145 126 130 120 109 95 84 76 72 79 75 76 74 69 67 69 79 91 99 100
225 220 227 235 249 287 286 293 303 323 323 319 317 313 309 305 285 268 258 241 236 226 220 195 196 210 172 166 156 146 146 144 136 118 106 93 79 75 79 85 84 84 77 75 79 83 89 104 102
215 226 245 251 272 283 288 305 316 313 322 4 349 347 335 320 307 282 241 236 226 201 185 174 192 182 181 211 179 181 144 149 149 135 119 104 86 81 78 89 94 91 88 85 91 94 88 104 102
217 243 260 276 271 281 289 296 299 303 29 32 30 24 16 11 347 273 237 212 190 181 176 170 176 179 195 175 172 189 181 161 164 159 127 115 96 89 86 81 94 104 99 91 97 95 100 103 103
224 255 265 275 269 290 279 250 240 264 50 51 33 49 27 33 44 312 178 188 173 174 181 176 167 186 185 193 189 196 181 166 174 175 179 147 93 101 105 108 89 102 106 105 104 107 98 104 106
244 250 278 279 287 276 244 234 256 324 62 52 51 58 44 36 39 57 103 167 180 173 184 189 186 192 209 223 206 196 188 197 190 189 185 157 116 138 117 103 110 110 124 112 117 114 114 101 105
234 258 262 263 270 214 189 224 292 110 68 63 52 53 56 54 61 56 61 97 177 181 185 198 209 213 217 211 214 201 182 198 208 198 193 184 191 155 173 113 120 128 129 128 123 124 121 115 112
234 219 224 217 202 189 188 360 142 64 84 68 52 28 52 56 64 55 48 57 107 169 183 181 202 212 219 225 217 198 192 194 202 192 189 205 177 165 174 165 144 138 139 134 129 127 132 134 139
230 213 220 208 196 237 255 276 138 100 65 53 42 15 37 46 48 53 35 26 33 112 174 185 197 205 206 203 210 206 206 213 199 224 221 219 205 173 159 184 161 152 148 149 150 130 131 113 114
227 230 228 223 249 262 270 265 245 169 114 95 28 30 15 37 66 58 42 34 31 235 180 190 193 195 202 203 210 207 220 224 229 231 214 221 207 206 191 179 192 200 196 178 156 116 115 96 19
226 233 234 222 242 241 256 263 259 245 240 112 48 56 21 12 37 60 46 39 36 28 261 223 204 213 208 207 217 214 212 223 219 203 205 216 209 213 214 221 207 272 241 206 201 169 154 154 104
216 225 226 231 224 234 258 282 293 290 254 146 123 36 15 12 11 30 29 30 32 28 12 320 245 228 222 220 211 213 216 215 215 230 224 223 226 229 229 253 251 260 236 227 250 214 279 201 211
221 222 225 235 243 245 252 280 280 283 264 248 250 7 348 12 6 358 9 19 18 24 26 358 316 279 231 225 222 225 227 226 226 230 231 238 233 235 233 254 236 226 229 209 201 237 279 218 324
225 224 227 231 235 238 255 274 267 269 278 281 289 358 343 3 2 2 354 356 357 3 13 27 9 273 252 244 235 224 227 225 225 230 233 237 238 232 237 228 207 216 213 211 229 233 223 269 285
221 225 224 227 236 241 242 244 248 258 272 298 299 313 309 312 344 350 344 349 339 346 356 13 19 357 278 257 250 244 229 219 221 227 225 225 221 228 233 226 206 204 202 211 218 211 212 311 296
217 224 228 224 229 237 244 246 250 256 271 275 286 289 297 308 318 334 339 334 336 336 351 6 16 7 353 12 341 264 236 224 216 217 209 202 207 202 203 204 203 199 184 208 228 225 231 261 279
219 219 226 231 225 227 243 253 257 259 257 273 281 277 283 293 299 309 319 325 326 315 337 345 6 7 353 358 357 321 248 223 203 203 195 182 186 191 200 207 195 194 188 197 201 219 226 266 286
228 223 223 232 231 231 239 247 251 258 266 270 274 276 276 286 293 300 318 316 325 306 314 327 346 5 344 346 352 341 291 217 189 197 195 182 191 194 202 201 196 196 193 193 198 205 220 236 287
237 229 229 232 237 235 238 241 243 243 247 259 261 265 273 283 295 303 306 313 310 295 300 311 347 355 351 331 341 347 284 223 196 198 192 191 196 198 203 202 200 204 192 191 197 197 191 216 196
242 236 230 231 239 241 234 244 240 243 244 248 256 262 272 283 294 299 305 314 304 295 291 310 333 26 351 295 318 329 286 214 203 193 187 199 203 198 198 207 206 203 184 188 200 201 208 217 216
237 234 231 227 230 235 235 239 242 245 248 255 262 270 276 283 289 293 299 301 293 296 285 272 284 278 334 274 273 310 315 211 206 196 197 195 199 202 204 210 210 205 196 196 204 219 232 229 233
234 231 228 226 226 230 234 236 242 243 253 257 263 268 273 278 283 289 291 287 290 291 284 271 260 273 284 293 244 251 279 227 209 202 202 199 205 201 206 208 216 217 207 208 214 216 219 233 244
233 237 234 227 227 224 229 236 242 242 251 254 259 265 269 274 279 284 284 283 286 287 289 278 264 263 247 260 245 216 216 253 205 202 205 206 205 206 206 207 216 209 208 212 224 241 233 246 257
Height
11005 11005 11005 11005 11006 11005 11004 11004 11004 11004 11004 11003 11002 11000 10998 10997 10995 10993 10991 10991 10990 10990 10992 10993 10995 10994 10994 10994 10993 10992 10991 10989 10986 10984 10981 10977 10973 10969 10964 10959 10955 10953 10949 10947 10944 10943 10942 10942 10945
11003 11004 11006 11007 11006 11005 11005 11004 11003 11002 11002 11001 11000 10998 10994 10993 10992 10991 10989 10988 10988 10988 10989 10990 10992 10994 10994 10994 10993 10992 10992 10992 10989 10986 10983 10981 10977 10975 10970 10965 10962 10960 10955 10951 10949 10947 10947 10947 10948
11001 11002 11004 11005 11005 11004 11004 11003 11001 11001 11000 10998 10995 10995 10992 10990 10989 10988 10986 10985 10985 10986 10988 10988 10990 10992 10993 10993 10993 10993 10993 10993 10992 10988 10986 10984 10982 10979 10976 10973 10970 10967 10963 10958 10954 10953 10952 10953 10955
10997 10999 11001 11002 11002 11002 11002 11001 11000 10997 10996 10993 10990 10990 10989 10988 10987 10985 10984 10984 10986 10983 10985 10987 10989 10991 10992 10994 10994 10994 10995 10994 10994 10991 10989 10987 10986 10983 10981 10979 10977 10974 10972 10967 10963 10960 10959 10960 10961
10994 10996 10997 10998 10999 10999 10998 10998 10997 10994 10992 10989 10986 10985 10985 10985 10982 10981 10981 10980 10983 10984 10984 10986 10988 10989 10992 10995 10995 10995 10995 10996 10996 10994 10992 10991 10990 10988 10986 10984 10983 10980 10978 10976 10972 10969 10967 10967 10968
10991 10994 10995 10996 10997 10997 10996 10995 10993 10991 10988 10986 10983 10981 10979 10978 10977 10976 10976 10975 10978 10980 10982 10985 10987 10989 10992 10994 10994 10995 10995 10997 10997 10997 10995 10995 10993 10992 10990 10989 10988 10987 10984 10982 10980 10979 10977 10977 10977
10988 10990 10992 10993 10994 10994 10993 10992 10990 10987 10984 10981 10978 10976 10973 10973 10972 10971 10971 10972 10973 10975 10978 10983 10987 10988 10991 10992 10993 10994 10996 10998 10999 10999 10998 10997 10996 10995 10993 10992 10991 10991 10990 10988 10987 10985 10985 10984 10986
10986 10987 10989 10990 10991 10992 10990 10989 10985 10982 10980 10977 10973 10970 10968 10967 10966 10966 10966 10968 10969 10970 10974 10981 10985 10986 10989 10991 10992 10995 10997 10998 10999 11000 11000 10999 10998 10998 10997 10996 10994 10994 10993 10993 10992 10990 10989 10989 10990
10984 10985 10986 10987 10988 10989 10988 10985 10982 10979 10978 10975 10970 10967 10964 10962 10961 10961 10962 10963 10965 10966 10969 10975 10981 10984 10988 10990 10992 10994 10996 10998 10999 11000 11000 11001 11000 11000 10999 10999 10998 10997 10997 10997 10996 10995 10993 10994 10994
10981 10983 10983 10984 10984 10984 10984 10981 10979 10978 10976 10973 10970 10966 10963 10959 10958 10957 10958 10959 10962 10963 10967 10972 10978 10983 10987 10989 10991 10994 10996 10997 10999 11000 11001 11002 11002 11001 11002 11001 11000 10999 11000 11000 11000 10999 10999 10999 10999
10979 10979 10980 10981 10981 10981 10979 10978 10976 10975 10973 10970 10967 10964 10961 10958 10955 10954 10955 10957 10960 10962 10967 10971 10977 10982 10985 10988 10990 10992 10994 10996 10998 11000 11000 11002 11003 11002 11003 11003 11002 11001 11002 11002 11004 11004 11003 11003 11003
10977 10977 10977 10977 10977 10978 10976 10975 10974 10974 10971 10969 10967 10962 10960 10958 10955 10954 10954 10956 10958 10962 10966 10971 10974 10980 10983 10985 10988 10991 10993 10995 10997 10998 11000 11002 11003 11003 11003 11004 11003 11003 11004 11004 11005 11006 11006 11006 11005
10974 10975 10975 10974 10976 10975 10974 10974 10973 10974 10971 10969 10968 10963 10962 10959 10956 10955 10955 10956 10959 10962 10965 10968 10972 10976 10978 10981 10985 10989 10992 10994 10995 10997 10999 11001 11002 11003 11003 11004 11004 11004 11004 11005 11005 11006 11007 11008 11008
10970 10973 10973 10972 10973 10972 10973 10974 10974 10974 10972 10970 10969 10965 10963 10962 10959 10959 10959 10959 10960 10962 10964 10966 10970 10972 10975 10979 10982 10985 10989 10992 10994 10996 10998 11000 11002 11002 11003 11004 11005 11006 11006 11006 11006 11006 11007 11008 11009
10967 10971 10971 10970 10971 10973 10974 10975 10974 10973 10973 10972 10969 10966 10964 10962 10963 10962 10963 10963 10962 10963 10964 10964 10966 10970 10973 10976 10979 10982 10984 10987 10990 10993 10996 10999 11001 11002 11002 11004 11005 11007 11008 11009 11008 11009 11009 11010 11011
10965 10967 10969 10969 10970 10972 10973 10974 10974 10973 10973 10971 10969 10970 10966 10964 10963 10965 10965 10964 10962 10963 10963 10964 10966 10968 10969 10972 10975 10978 10981 10984 10988 10991 10994 10997 10999 11001 11001 11003 11005 11007 11009 11010 11010 11011 11011 11012 11012
10961 10964 10966 10968 10969 10970 10971 10972 10973 10971 10971 10970 10970 10971 10971 10967 10964 10966 10966 10965 10963 10963 10962 10962 10963 10965 10967 10970 10972 10974 10977 10981 10984 10987 10991 10994 10996 10999 11000 11002 11004 11007 11010 11011 11012 11011 11011 11012 11012
10959 10960 10961 10966 10968 10967 10968 10969 10971 10971 10969 10970 10971 10971 10971 10970 10968 10966 10966 10965 10965 10963 10962 10961 10961 10961 10964 10967 10970 10972 10975 10978 10981 10986 10989 10990 10993 10995 10997 10999 11002 11006 11008 11011 11013 11012 11012 11012 11011
10956 10957 10959 10962 10965 10966 10965 10967 10967 10968 10969 10970 10971 10972 10971 10970 10970 10968 10968 10966 10963 10960 10959 10960 10961 10960 10960 10961 10963 10966 10971 10976 10979 10981 10985 10988 10990 10992 10995 10998 11000 11004 11007 11009 11012 11012 11012 11012 11012
10951 10953 10956 10958 10961 10963 10964 10964 10965 10966 10967 10969 10969 10971 10971 10970 10969 10969 10968 10967 10966 10964 10960 10958 10956 10956 10957 10957 10959 10961 10964 10967 10971 10973 10978 10982 10985 10988 10993 10996 10999 11002 11003 11009 11011 11011 11012 11011 11011
10944 10948 10952 10955 10956 10958 10960 10961 10963 10965 10965 10965 10967 10968 10969 10968 10967 10967 10966 10965 10964 10962 10960 10957 10956 10955 10954 10954 10954 10955 10957 10959 10964 10968 10972 10976 10979 10985 10991 10994 10997 10999 11002 11006 11009 11010 11011 11010 11009
10941 10944 10947 10949 10952 10952 10953 10957 10959 10961 10963 10963 10963 10965 10966 10966 10966 10965 10964 10962 10960 10959 10957 10955 10953 10954 10953 10951 10950 10950 10951 10954 10958 10961 10965 10968 10972 10979 10986 10991 10994 10998 11001 11002 11006 11008 11009 11008 11007
10937 10938 10939 10943 10945 10945 10947 10954 10955 10959 10960 10962 10962 10962 10963 10963 10963 10963 10962 10959 10957 10956 10955 10953 10950 10948 10947 10945 10945 10946 10946 10950 10953 10958 10959 10962 10967 10974 10982 10987 10990 10994 10998 11000 11002 11004 11005 11004 11004
10927 10930 10931 10933 10937 10941 10942 10946 10951 10953 10956 10957 10959 10960 10959 10959 10960 10961 10960 10958 10957 10956 10954 10951 10947 10944 10943 10942 10942 10941 10941 10943 10949 10954 10957 10960 10965 10974 10979 10982 10985 10989 10991 10994 10997 11001 11002 11003 11002
10917 10920 10923 10923 10928 10937 10938 10941 10945 10946 10946 10950 10952 10954 10956 10956 10956 10957 10956 10955 10955 10953 10952 10949 10946 10942 10942 10941 10940 10939 10939 10941 10945 10951 10955 10959 10964 10970 10975 10978 10982 10987 10988 10991 10994 10996 10997 10999 10999
10907 10914 10918 10920 10922 10929 10933 10934 10939 10942 10943 10943 10946 10946 10948 10950 10950 10951 10951 10951 10950 10948 10948 10947 10945 10942 10941 10941 10940 10940 10940 10942 10944 10947 10954 10958 10962 10967 10972 10976 10981 10985 10987 10989 10992 10995 10994 10996 10997
10897 10904 10906 10912 10915 10920 10927 10924 10931 10932 10933 10935 10937 10940 10942 10944 10945 10944 10943 10944 10944 10945 10945 10945 10945 10942 10941 10941 10940 10940 10941 10943 10944 10947 10953 10956 10961 10964 10969 10974 10978 10982 10984 10987 10990 10991 10993 10993 10995
10886 10890 10897 10903 10906 10909 10915 10918 10918 10922 10925 10928 10931 10933 10934 10935 10939 10938 10938 10938 10939 10939 10940 10940 10941 10941 10941 10940 10940 10939 10940 10942 10944 10946 10950 10954 10959 10963 10967 10971 10974 10978 10982 10984 10987 10990 10992 10992 10993
10877 10880 10885 10890 10897 10903 10907 10908 10909 10916 10915 10920 10922 10924 10926 10928 10931 10933 10933 10932 10932 10934 10933 10933 10935 10936 10938 10938 10938 10937 10938 10939 10941 10944 10947 10952 10956 10960 10964 10968 10972 10976 10980 10983 10985 10987 10989 10990 10992
10868 10873 10877 10883 10889 10895 10899 10901 10901 10906 10908 10912 10915 10915 10918 10919 10922 10926 10927 10926 10925 10925 10926 10927 10928 10929 10931 10934 10935 10935 10936 10937 10937 10941 10944 10948 10953 10957 10961 10966 10970 10974 10978 10981 10983 10984 10986 10987 10988